Вернуться в каталог

STARLINK-1392

АктивенСвязьVLEO
NORAD 45677·PAYLOAD·🇺🇸 United States

Запущен Jun 4, 2020 с Cape Canaveral Space Force Station

Loading…

Ближайшие Пролёты (ближайшие 24 часа)

TLE

СвежийSource: CelesTrak SupGP

Эпоха: Sep 14, 2026, 20:34 UTC

1 45677C 20035W   26257.85743056  .00077456  00000+0  14970-2 0  2577
2 45677  53.1473 254.7736 0001340  47.6241 129.2805 15.47143527    17

Отслеживайте STARLINK-1392 в реальном времени с AllMySat

Download on the App Store